Change the Weather History Date:

Friday, April 12, 2013

  Actual Average Record
Temperature  
Mean Temperature 42 °F -  
Max Temperature 46 °F 51 °F 68 °F (1987)
Min Temperature 39 °F 34 °F 22 °F (1976)
Degree Days  
Heating Degree Days 22    
Moisture  
Dew Point 37 °F    
Average Humidity 83    
Maximum Humidity 100    
Minimum Humidity 50    
Precipitation  
Precipitation 1.03 in - - ()
Sea Level Pressure  
Sea Level Pressure 29.94 in    
Wind  
Wind Speed 10 mph (East)    
Max Wind Speed 21 mph    
Max Gust Speed 32 mph    
Visibility 5 miles    
Events Rain    
Averages and records for this station are not official NWS values.
T = Trace of Precipitation, MM = Missing Value Source: NWS Daily Summary

Daily Weather History Graph

Daily Weather History Graph

Search for Another Location

Airport or City:

Trip Planner

Search our weather history database for the weather conditions in past years. The results will help you decide how hot, cold, wet, or windy it might be!

Date:

Astronomy

Apr. 12, 2013 Rise Set
Actual Time 6:05 AM EDT 7:18 PM EDT
Civil Twilight 5:36 AM EDT 7:47 PM EDT
Nautical Twilight 5:02 AM EDT 8:21 PM EDT
Astronomical Twilight 4:26 AM EDT 8:58 PM EDT
Moon 7:11 AM EDT (4/12) 9:48 PM EDT (4/12)
Length of Visible Light 14h 10m
Length of Day
13h 13m
Waxing Crescent, 5% of the Moon is Illuminated
Apr 12
Waxing Crescent
Apr 18
First Quarter
Apr 25
Full
May 2
Last Quarter
May 9
New

Hourly Weather History & Observations

Time (EDT) Temp. Windchill Dew Point Humidity Pressure Visibility Wind Dir Wind Speed Gust Speed Precip Events Conditions
12:56 AM 46.9 °F - 33.1 °F 59% 30.13 in 10.0 mi Variable 3.5 mph - N/A   Overcast
1:56 AM 46.0 °F 43.9 °F 33.1 °F 61% 30.13 in 10.0 mi East 4.6 mph - N/A   Overcast
2:56 AM 46.0 °F 43.1 °F 33.1 °F 61% 30.12 in 10.0 mi ENE 5.8 mph - N/A   Overcast
3:56 AM 46.0 °F 42.5 °F 34.0 °F 63% 30.12 in 10.0 mi ENE 6.9 mph - N/A   Overcast
4:56 AM 46.0 °F 41.4 °F 32.0 °F 58% 30.12 in 10.0 mi East 9.2 mph - N/A   Overcast
5:56 AM 46.0 °F 41.9 °F 28.0 °F 50% 30.11 in 10.0 mi ENE 8.1 mph 20.7 mph N/A   Overcast
6:56 AM 45.0 °F 38.5 °F 30.0 °F 56% 30.12 in 10.0 mi ENE 13.8 mph 26.5 mph N/A   Overcast
7:56 AM 46.0 °F 40.6 °F 30.0 °F 54% 30.10 in 10.0 mi East 11.5 mph 23.0 mph N/A   Overcast
8:56 AM 46.0 °F 39.3 °F 30.9 °F 56% 30.10 in 10.0 mi East 16.1 mph 26.5 mph 0.00 in Rain Light Rain
9:56 AM 46.0 °F 39.3 °F 34.0 °F 63% 30.09 in 10.0 mi East 16.1 mph 27.6 mph 0.00 in   Overcast
10:56 AM 46.0 °F 39.3 °F 32.0 °F 58% 30.06 in 10.0 mi ESE 16.1 mph 28.8 mph 0.00 in   Overcast
11:56 AM 43.0 °F 34.2 °F 33.1 °F 68% 30.02 in 10.0 mi East 20.7 mph 32.2 mph 0.00 in   Overcast
12:34 PM 41.0 °F 33.9 °F 35.6 °F 81% 29.99 in 7.0 mi ESE 12.7 mph 27.6 mph 0.02 in Rain Light Rain
12:42 PM 41.0 °F 33.1 °F 35.6 °F 81% 29.99 in 2.5 mi SE 15.0 mph 31.1 mph 0.04 in Rain Heavy Rain
12:46 PM 39.2 °F 30.5 °F 35.6 °F 87% 29.99 in 1.8 mi ESE 16.1 mph 31.1 mph 0.06 in Rain Heavy Rain
12:56 PM 39.0 °F 31.4 °F 36.0 °F 89% 29.99 in 1.2 mi ESE 12.7 mph 24.2 mph 0.12 in Rain Heavy Rain
1:06 PM 39.2 °F 31.6 °F 35.6 °F 87% 29.98 in 3.0 mi ESE 12.7 mph 27.6 mph 0.02 in Rain Light Rain
1:26 PM 39.2 °F 31.2 °F 35.6 °F 87% 29.98 in 4.0 mi ESE 13.8 mph 24.2 mph 0.03 in Rain Light Rain
1:46 PM 39.2 °F 31.2 °F 37.4 °F 93% 29.97 in 2.0 mi ESE 13.8 mph 23.0 mph 0.04 in Rain Rain
1:53 PM 39.2 °F 30.8 °F 37.4 °F 93% 29.97 in 2.0 mi East 15.0 mph 21.9 mph 0.05 in Rain Light Rain
1:56 PM 39.0 °F 30.3 °F 37.0 °F 93% 29.97 in 3.0 mi ESE 16.1 mph 24.2 mph 0.05 in Rain Light Rain
2:07 PM 39.2 °F 31.2 °F 35.6 °F 87% 29.96 in 2.5 mi East 13.8 mph 25.3 mph 0.00 in Rain Light Rain
2:18 PM 39.2 °F 30.8 °F 37.4 °F 93% 29.95 in 1.2 mi East 15.0 mph 23.0 mph 0.01 in Rain Light Rain
2:26 PM 39.2 °F 30.8 °F 37.4 °F 93% 29.94 in 1.8 mi East 15.0 mph 24.2 mph 0.01 in Rain Light Rain
2:37 PM 39.2 °F 32.0 °F 37.4 °F 93% 29.94 in 2.5 mi East 11.5 mph 23.0 mph 0.01 in Rain Light Rain
2:54 PM 39.2 °F 33.0 °F 37.4 °F 93% 29.92 in 1.5 mi East 9.2 mph 21.9 mph 0.03 in Rain Light Rain
2:56 PM 39.9 °F 33.4 °F 37.9 °F 93% 29.93 in 1.8 mi East 10.4 mph 21.9 mph 0.04 in Rain Light Rain
3:04 PM 39.2 °F 31.2 °F 37.4 °F 93% 29.93 in 2.0 mi East 13.8 mph 23.0 mph 0.02 in Rain Light Rain
3:14 PM 39.2 °F 33.0 °F 39.2 °F 100% 29.93 in 1.2 mi East 9.2 mph 16.1 mph 0.04 in Rain Rain
3:35 PM 39.2 °F 32.5 °F 37.4 °F 93% 29.90 in 2.5 mi East 10.4 mph 18.4 mph 0.08 in Rain Rain
3:56 PM 39.9 °F 32.9 °F 39.0 °F 97% 29.88 in 4.0 mi East 11.5 mph 19.6 mph 0.10 in Rain Light Rain
4:56 PM 41.0 °F 34.3 °F 39.0 °F 93% 29.81 in 2.5 mi East 11.5 mph 21.9 mph 0.06 in Rain Rain
5:56 PM 42.1 °F 35.2 °F 39.9 °F 92% 29.80 in 3.0 mi East 12.7 mph 19.6 mph 0.12 in Rain Light Rain
6:24 PM 42.8 °F 38.6 °F 41.0 °F 93% 29.79 in 1.5 mi ENE 6.9 mph - 0.07 in Rain Heavy Rain
6:56 PM 42.1 °F 37.1 °F 41.0 °F 96% 29.77 in 1.8 mi NE 8.1 mph - 0.12 in Rain Rain
7:56 PM 43.0 °F 38.2 °F 42.1 °F 97% 29.72 in 4.0 mi ENE 8.1 mph - 0.17 in Rain Rain
8:24 PM 44.6 °F 40.7 °F 42.8 °F 93% 29.70 in 2.5 mi ENE 6.9 mph - 0.17 in Rain Heavy Rain
8:56 PM 44.1 °F 41.5 °F 43.0 °F 96% 29.70 in 9.0 mi NNE 4.6 mph - 0.24 in Rain Light Rain
9:56 PM 44.1 °F 38.6 °F 43.0 °F 96% 29.68 in 10.0 mi North 10.4 mph - 0.01 in   Overcast
10:05 PM 44.6 °F 39.7 °F 44.6 °F 100% 29.68 in 10.0 mi North 9.2 mph - N/A   Overcast
10:56 PM 44.1 °F 39.5 °F 43.0 °F 96% 29.68 in 2.5 mi North 8.1 mph - N/A   Overcast
11:56 PM 43.0 °F 38.2 °F 43.0 °F 100% 29.67 in 2.0 mi North 8.1 mph 18.4 mph 0.00 in Rain Light Rain